When you browse on this site, cookies collect data to enhance your experience and personalize the content and advertising you see.
Visit our Privacy Policy to learn more. By continuing to use the site, you agree to this use of cookies and data.
  • In Austria
  • List of Countries
  • For 7 days
  • Water Temperature
  • Satellite Maps
  • Weather Map
  • News
  • Weather Widgets
  • user-avatar
    Login

    Hourly Weather Neuquén

    Today, 16 February, Saturday

    Time Temperature Precipitation Wind Pressure Humidity
    00:00 +33°C° 0 mm 5 mps 731 mmHg 20%
    01:00 +32°C° 0 mm 5 mps 731 mmHg 21%
    02:00 +32°C° 0 mm 5 mps 731 mmHg 23%
    03:00 +30°C° 0 mm 5 mps 731 mmHg 24%
    04:00 +29°C° 0 mm 5 mps 731 mmHg 26%
    05:00 +30°C° 0 mm 6 mps 731 mmHg 26%
    06:00 +32°C° 0 mm 6 mps 731 mmHg 26%
    07:00 +33°C° 0 mm 7 mps 731 mmHg 26%
    08:00 +35°C° 0 mm 6 mps 731 mmHg 23%
    09:00 +38°C° 0 mm 6 mps 731 mmHg 19%
    10:00 +40°C° 0 mm 6 mps 731 mmHg 16%
    11:00 +40°C° 0 mm 6 mps 731 mmHg 15%
    12:00 +41°C° 0 mm 5 mps 731 mmHg 14%
    13:00 +42°C° 0 mm 4 mps 730 mmHg 12%
    14:00 +43°C° 0 mm 4 mps 730 mmHg 12%
    15:00 +43°C° 0 mm 3 mps 729 mmHg 11%
    16:00 +43°C° 0 mm 3 mps 729 mmHg 10%
    17:00 +41°C° 0 mm 2 mps 728 mmHg 11%
    18:00 +39°C° 0 mm 2 mps 728 mmHg 12%
    19:00 +38°C° 0 mm 2 mps 728 mmHg 12%
    20:00 +37°C° 0 mm 2 mps 728 mmHg 13%
    21:00 +36°C° 0 mm 3 mps 729 mmHg 14%
    22:00 +35°C° 0 mm 3 mps 729 mmHg 15%
    23:00 +34°C° 0 mm 4 mps 729 mmHg 16%

    Tomorrow, 17 February, Sunday

    Time Temperature Precipitation Wind Pressure Humidity
    00:00 +34°C° 0 mm 4 mps 729 mmHg 17%
    01:00 +33°C° 0 mm 5 mps 729 mmHg 18%
    02:00 +32°C° 0 mm 4 mps 728 mmHg 19%
    03:00 +30°C° 0 mm 4 mps 728 mmHg 21%
    04:00 +29°C° 0 mm 4 mps 728 mmHg 22%
    05:00 +30°C° 0 mm 5 mps 729 mmHg 22%
    06:00 +32°C° 0 mm 5 mps 729 mmHg 21%
    07:00 +33°C° 0 mm 6 mps 729 mmHg 20%
    08:00 +35°C° 0 mm 5 mps 729 mmHg 17%
    09:00 +37°C° 0 mm 4 mps 729 mmHg 15%
    10:00 +39°C° 0 mm 3 mps 729 mmHg 12%
    11:00 +39°C° 0 mm 3 mps 729 mmHg 11%
    12:00 +40°C° 0 mm 2 mps 728 mmHg 11%
    13:00 +41°C° 0 mm 2 mps 727 mmHg 10%
    14:00 +42°C° 0 mm 3 mps 727 mmHg 10%
    15:00 +43°C° 0 mm 4 mps 726 mmHg 9%
    16:00 +43°C° 0 mm 5 mps 726 mmHg 9%
    17:00 +42°C° 0 mm 4 mps 726 mmHg 10%
    18:00 +39°C° 0 mm 3 mps 726 mmHg 10%
    19:00 +38°C° 0 mm 2 mps 726 mmHg 11%
    20:00 +36°C° 0 mm 5 mps 727 mmHg 14%
    21:00 +35°C° 0 mm 8 mps 727 mmHg 16%
    22:00 +33°C° 0 mm 11 mps 727 mmHg 18%
    23:00 +32°C° 0 mm 11 mps 727 mmHg 20%

    Day after tomorrow, 18 February, Monday

    Time Temperature Precipitation Wind Pressure Humidity
    00:00 +31°C° 0 mm 11 mps 727 mmHg 21%
    01:00 +29°C° 0 mm 11 mps 727 mmHg 22%
    02:00 +28°C° 0 mm 10 mps 727 mmHg 23%
    03:00 +27°C° 0 mm 8 mps 727 mmHg 24%
    04:00 +26°C° 0 mm 7 mps 727 mmHg 24%
    05:00 +27°C° 0 mm 7 mps 727 mmHg 24%
    06:00 +27°C° 0 mm 8 mps 728 mmHg 23%
    07:00 +27°C° 0 mm 8 mps 728 mmHg 23%
    08:00 +28°C° 0 mm 9 mps 729 mmHg 20%
    09:00 +31°C° 0 mm 10 mps 729 mmHg 16%
    10:00 +32°C° 0 mm 11 mps 729 mmHg 13%
    11:00 +33°C° 0 mm 11 mps 729 mmHg 14%
    12:00 +34°C° 0 mm 11 mps 729 mmHg 15%
    13:00 +36°C° 0 mm 11 mps 729 mmHg 16%
    14:00 +36°C° 0 mm 11 mps 729 mmHg 17%
    15:00 +34°C° 0 mm 12 mps 729 mmHg 19%
    16:00 +34°C° 0 mm 12 mps 728 mmHg 20%
    17:00 +33°C° 0 mm 11 mps 729 mmHg 20%
    18:00 +31°C° 0 mm 10 mps 729 mmHg 21%
    19:00 +29°C° 0 mm 10 mps 730 mmHg 21%
    20:00 +28°C° 0 mm 10 mps 730 mmHg 24%
    21:00 +26°C° 0 mm 10 mps 731 mmHg 28%
    22:00 +24°C° 0 mm 10 mps 731 mmHg 31%
    23:00 +23°C° 0 mm 9 mps 731 mmHg 33%

    19 February, Tuesday

    Time Temperature Precipitation Wind Pressure Humidity
    00:00 +22°C° 0 mm 8 mps 731 mmHg 35%
    01:00 +22°C° 0 mm 7 mps 731 mmHg 36%
    02:00 +21°C° 0 mm 6 mps 731 mmHg 37%
    03:00 +21°C° 0 mm 5 mps 731 mmHg 38%
    04:00 +20°C° 0 mm 4 mps 730 mmHg 39%
    05:00 +20°C° 0 mm 3 mps 731 mmHg 40%
    06:00 +21°C° 0 mm 2 mps 731 mmHg 40%
    07:00 +22°C° 0 mm 1 mps 731 mmHg 41%
    08:00 +23°C° 0 mm 1 mps 731 mmHg 37%
    09:00 +25°C° 0 mm 1 mps 730 mmHg 32%
    10:00 +27°C° 0 mm 1 mps 730 mmHg 28%
    11:00 +29°C° 0 mm 3 mps 729 mmHg 26%
    12:00 +30°C° 0 mm 4 mps 728 mmHg 23%
    13:00 +33°C° 0 mm 5 mps 728 mmHg 20%
    14:00 +35°C° 0 mm 6 mps 727 mmHg 18%
    15:00 +36°C° 0 mm 6 mps 727 mmHg 15%
    16:00 +39°C° 0 mm 7 mps 726 mmHg 12%
    17:00 +36°C° 0 mm 7 mps 726 mmHg 12%
    18:00 +35°C° 0 mm 8 mps 727 mmHg 12%
    19:00 +33°C° 0 mm 9 mps 727 mmHg 12%
    20:00 +31°C° 0 mm 8 mps 727 mmHg 15%
    21:00 +29°C° 0 mm 8 mps 728 mmHg 17%
    22:00 +28°C° 0 mm 8 mps 728 mmHg 20%
    23:00 +27°C° 0 mm 7 mps 728 mmHg 22%

    20 February, Wednesday

    Time Temperature Precipitation Wind Pressure Humidity
    00:00 +26°C° 0 mm 6 mps 728 mmHg 24%
    01:00 +25°C° 0 mm 4 mps 728 mmHg 26%
    02:00 +23°C° 0 mm 4 mps 728 mmHg 27%
    03:00 +22°C° 0 mm 3 mps 728 mmHg 29%
    04:00 +23°C° 0 mm 2 mps 727 mmHg 30%
    05:00 +22°C° 0 mm 3 mps 728 mmHg 28%
    06:00 +24°C° 0 mm 3 mps 728 mmHg 26%
    07:00 +25°C° 0 mm 4 mps 728 mmHg 25%
    08:00 +26°C° 0 mm 4 mps 729 mmHg 22%
    09:00 +28°C° 0 mm 5 mps 729 mmHg 19%
    10:00 +30°C° 0 mm 6 mps 729 mmHg 16%
    11:00 +33°C° 0 mm 7 mps 728 mmHg 14%
    12:00 +35°C° 0 mm 7 mps 728 mmHg 13%
    13:00 +37°C° 0 mm 8 mps 727 mmHg 11%
    14:00 +38°C° 0 mm 9 mps 727 mmHg 11%
    15:00 +38°C° 0 mm 10 mps 727 mmHg 11%
    16:00 +38°C° 0 mm 11 mps 726 mmHg 10%
    17:00 +34°C° 0 mm 12 mps 727 mmHg 14%
    18:00 +32°C° 0 mm 13 mps 728 mmHg 18%
    19:00 +28°C° 0 mm 13 mps 729 mmHg 22%
    20:00 +27°C° 0 mm 13 mps 729 mmHg 25%
    21:00 +24°C° 0 mm 12 mps 730 mmHg 27%
    22:00 +23°C° 0 mm 11 mps 731 mmHg 30%
    23:00 +22°C° 0 mm 10 mps 731 mmHg 31%

    21 February, Thursday

    Time Temperature Precipitation Wind Pressure Humidity
    00:00 +22°C° 0 mm 9 mps 731 mmHg 31%
    01:00 +21°C° 0 mm 8 mps 731 mmHg 31%
    02:00 +21°C° 0 mm 8 mps 732 mmHg 32%
    03:00 +20°C° 0 mm 7 mps 732 mmHg 32%
    04:00 +20°C° 0 mm 7 mps 732 mmHg 33%
    05:00 +20°C° 0 mm 6 mps 733 mmHg 32%
    06:00 +21°C° 0 mm 6 mps 734 mmHg 32%
    07:00 +21°C° 0 mm 6 mps 735 mmHg 31%
    08:00 +23°C° 0 mm 6 mps 735 mmHg 28%
    09:00 +25°C° 0 mm 5 mps 735 mmHg 24%
    10:00 +26°C° 0 mm 5 mps 735 mmHg 21%
    11:00 +27°C° 0 mm 5 mps 735 mmHg 19%
    12:00 +28°C° 0 mm 5 mps 735 mmHg 18%
    13:00 +29°C° 0 mm 5 mps 734 mmHg 16%
    14:00 +30°C° 0 mm 4 mps 734 mmHg 16%
    15:00 +30°C° 0 mm 4 mps 734 mmHg 16%
    16:00 +30°C° 0 mm 3 mps 733 mmHg 16%
    17:00 +29°C° 0 mm 3 mps 734 mmHg 16%
    18:00 +29°C° 0 mm 3 mps 734 mmHg 17%
    19:00 +28°C° 0 mm 2 mps 734 mmHg 17%
    20:00 +27°C° 0 mm 4 mps 735 mmHg 18%
    21:00 +26°C° 0 mm 6 mps 735 mmHg 19%
    22:00 +24°C° 0 mm 9 mps 735 mmHg 20%
    23:00 +24°C° 0 mm 8 mps 735 mmHg 22%
    Show more